This demonstration page uses our WeatherBlox Daily Observations layout. Learn more.

Left ArrowRight Arrow

39.51506, -84.39828

Hourly Observations for March 26, 2015

Temp ( °F °C ) Dew Point ( °F °C ) Humidity (%) Winds ( mph kmh ) Pressure ( in mb ) Visibility ( mi km ) Precip ( " mm )
12:15 am 00:15 Clear 45 7.3 41 4.9 85 85 N N/A 30.00 1016 10 16 N/A
12:35 am 00:35 Clear 44 6.6 40 4.5 87 87 N N/A 30.00 1016 7 11 N/A
12:55 am 00:55 Clear 44 6.7 40 4.7 87 87 N N/A 30.00 1016 7 11 N/A
1:15 am 01:15 Mostly Cloudy 47 8.2 43 6.2 87 87 N N/A 30.00 1016 10 16 N/A
1:35 am 01:35 Cloudy 49 9.6 46 7.5 87 87 N N/A 29.97 1015 7 11 N/A
1:55 am 01:55 Partly Cloudy 47 8.2 43 6.1 87 87 NE 5 7 29.94 1014 7 11 N/A
2:15 am 02:15 Mostly Cloudy with Light Snow 49 9.6 46 7.5 87 87 N N/A 29.94 1014 7 11 N/A
2:35 am 02:35 Cloudy with Mist and Fog 49 9.6 46 7.5 87 87 N N/A 29.94 1014 5 8 N/A
2:55 am 02:55 Cloudy with Mist and Fog 49 9.6 45 7.2 85 85 N N/A 29.94 1014 5 8 N/A
3:15 am 03:15 Cloudy 49 9.6 45 7.1 85 85 N 5 7 29.94 1014 7 11 N/A
3:35 am 03:35 Cloudy with Light Snow 49 9.6 45 7 84 84 NNE 9 15 29.94 1014 5 8 N/A
3:55 am 03:55 Cloudy with Mist and Fog 49 9.6 45 7 84 84 N N/A 29.94 1014 5 8 N/A
4:15 am 04:15 Cloudy with Light Snow 49 9.6 45 7.2 85 85 N N/A 29.97 1015 4 6 N/A
4:35 am 04:35 Cloudy with Light Snow 49 9.6 45 7.2 85 85 N N/A 29.94 1014 3 4 N/A
4:55 am 04:55 Cloudy with Light Snow 49 9.6 46 7.5 87 87 N N/A 29.91 1013 3 5 N/A
5:15 am 05:15 Cloudy with Mist and Fog 47 8.3 43 6.2 87 87 ENE 3 6 29.88 1012 3 5 N/A
5:35 am 05:35 Cloudy with Light Snow 47 8.2 43 6.2 87 87 N N/A 29.88 1012 3 5 N/A
5:55 am 05:55 Cloudy with Light Snow 47 8.2 43 6.2 87 87 N N/A 29.88 1012 3 4 N/A
6:15 am 06:15 Cloudy with Light Snow 47 8.2 43 6.2 87 87 N N/A 29.88 1012 3 5 N/A
6:35 am 06:35 Cloudy with Light Snow 47 8.2 43 6.1 87 87 N 7 11 29.91 1013 2 3 N/A
6:55 am 06:55 Cloudy with Light Snow 47 8.2 43 6.1 87 87 NE 10 17 29.88 1012 3 4 N/A
7:15 am 07:15 Cloudy with Light Snow 45 7.1 41 4.9 86 86 NE 13 20 29.85 1011 5 8 N/A
7:35 am 07:35 Cloudy with Light Snow 44 6.8 40 4.7 87 87 N 6 9 29.88 1012 3 5 N/A
7:55 am 07:55 Cloudy with Light Snow 44 6.8 40 4.7 87 87 NNE 6 9 29.88 1012 3 5 N/A
8:15 am 08:15 Cloudy with Light Snow 44 6.8 40 4.6 86 86 N N/A 29.88 1012 3 5 N/A
8:35 am 08:35 Cloudy with Light Snow 44 6.8 40 4.6 86 86 N N/A 29.88 1012 4 6 N/A
8:55 am 08:55 Cloudy with Light Snow 44 6.8 40 4.7 87 87 N N/A 29.91 1013 3 4 N/A
9:15 am 09:15 Cloudy with Light Snow 44 6.8 40 4.7 87 87 N N/A 29.88 1012 3 5 N/A
9:35 am 09:35 Cloudy with Light Snow 44 6.8 40 4.7 87 87 N N/A 29.88 1012 5 8 N/A
9:55 am 09:55 Cloudy with Light Snow 45 7 41 4.9 87 87 NNE 8 13 29.88 1012 3 5 N/A
10:15 am 10:15 Cloudy with Light Snow 45 7.3 41 5.1 86 86 N N/A 29.88 1012 5 8 N/A
10:35 am 10:35 Cloudy 47 8.2 43 6 86 86 N 7 11 29.88 1012 7 11 N/A
10:55 am 10:55 Cloudy 47 8.2 43 5.9 86 86 N N/A 29.91 1013 10 16 N/A
11:15 am 11:15 Cloudy 44 6.8 40 4.5 85 85 NNW 10 17 29.91 1013 7 11 N/A
11:35 am 11:35 Cloudy with Mist and Fog 44 6.8 40 4.4 85 85 N 8 13 29.91 1013 5 8 N/A
11:55 am 11:55 Cloudy 46 7.9 42 5.3 84 84 N 3 6 29.91 1013 7 11 N/A
12:15 pm 12:15 Cloudy with Light Snow 47 8.2 42 5.5 83 83 N N/A 29.91 1013 4 6 N/A
12:35 pm 12:35 Cloudy with Haze 47 8.4 42 5.8 84 84 N 5 7 29.88 1012 5 8 N/A
12:55 pm 12:55 Cloudy 49 9.6 44 6.8 83 83 N N/A 29.91 1013 7 11 N/A
1:15 pm 13:15 Cloudy 49 9.6 44 6.4 81 81 N 6 9 29.91 1013 10 16 N/A
1:35 pm 13:35 Cloudy 49 9.6 43 6 78 78 N N/A 29.88 1012 10 16 N/A
1:55 pm 13:55 Cloudy 49 9.6 42 5.8 77 77 NW 5 7 29.88 1012 10 16 N/A
2:15 pm 14:15 Cloudy with Rain 49 9.6 42 5.5 76 76 NW 9 15 29.88 1012 10 16 N/A
2:35 pm 14:35 Cloudy 49 9.6 43 6.1 79 79 NNW 9 15 29.88 1012 7 11 N/A
2:55 pm 14:55 Cloudy 47 8.6 42 5.4 81 81 NNW 9 15 29.88 1012 10 16 N/A
3:15 pm 15:15 Cloudy 47 8.2 40 4.6 78 78 NNW 7 11 29.88 1012 10 16 N/A
3:35 pm 15:35 Cloudy 47 8.2 40 4.4 77 77 NW 8 13 29.91 1013 10 16 N/A
3:55 pm 15:55 Cloudy 47 8.2 40 4.2 76 76 NNW 7 11 29.91 1013 10 16 N/A
4:15 pm 16:15 Cloudy 45 7.3 38 3.6 78 78 NW 7 11 29.91 1013 10 16 N/A
4:35 pm 16:35 Cloudy 44 6.8 37 3 77 77 NW 13 20 29.94 1014 10 16 N/A
4:55 pm 16:55 Cloudy 45 7.1 36 2.4 72 72 NW 8 13 29.91 1013 10 16 N/A
5:15 pm 17:15 Cloudy 44 6.5 35 1.5 71 71 NW 8 13 29.91 1013 10 16 N/A
5:35 pm 17:35 Cloudy 43 6.2 34 1.3 71 71 NW 8 13 29.94 1014 10 16 N/A
5:55 pm 17:55 Cloudy 43 6.3 34 0.9 69 69 NW 7 11 29.94 1014 10 16 N/A
6:15 pm 18:15 Cloudy 43 6.2 33 0.7 68 68 N 5 7 29.91 1013 10 16 N/A
6:35 pm 18:35 Cloudy 43 6.1 33 0.6 68 68 N N/A 29.94 1014 10 16 N/A
6:55 pm 18:55 Cloudy 43 6.1 32 0.1 66 66 NW 9 15 29.94 1014 10 16 N/A
7:15 pm 19:15 Mostly Cloudy 43 6.1 32 undefined 65 65 NNW 5 7 29.94 1014 10 16 N/A
7:35 pm 19:35 Mostly Cloudy 43 6.1 32 0.1 66 66 NW 6 9 29.94 1014 10 16 N/A
7:55 pm 19:55 Mostly Cloudy 43 6 32 undefined 66 66 NW 5 7 29.97 1015 10 16 N/A
8:15 pm 20:15 Mostly Cloudy 42 5.8 32 undefined 67 67 NW 5 7 29.97 1015 10 16 N/A
8:35 pm 20:35 Partly Cloudy 42 5.5 32 undefined 68 68 WNW 3 6 29.97 1015 10 16 N/A
8:55 pm 20:55 Partly Cloudy 42 5.3 32 undefined 69 69 N N/A 29.97 1015 10 16 N/A
9:15 pm 21:15 Mostly Cloudy 42 5.5 33 0.4 70 70 N N/A 29.97 1015 10 16 N/A
9:35 pm 21:35 Cloudy 40 4.6 35 1.5 81 81 N N/A 29.97 1015 10 16 N/A
9:55 pm 21:55 Cloudy 40 4.7 35 1.6 81 81 WSW 3 6 29.97 1015 10 16 N/A
10:15 pm 22:15 Cloudy 40 4.7 35 1.5 80 80 N N/A 29.97 1015 10 16 N/A
10:35 pm 22:35 Cloudy 40 4.7 35 1.8 82 82 N N/A 30.00 1016 10 16 N/A
10:55 pm 22:55 Cloudy 40 4.7 35 1.4 79 79 N 6 9 30.00 1016 10 16 N/A
11:15 pm 23:15 Mostly Cloudy 40 4.3 34 0.9 79 79 N 3 6 30.00 1016 10 16 N/A
11:35 pm 23:35 Mostly Cloudy 40 4.5 32 undefined 73 73 N 7 11 30.00 1016 10 16 N/A
11:55 pm 23:55 Cloudy 39 4 30 -1 70 70 N 6 9 30.00 1016 10 16 N/A

Powered by AerisWeather